Wind_Speed
11 11 11 10 10 9 10 11 12 10 6 2 3 4 3 3 1 1 2 4 4 5 5 5 5 4 3 2 1 2 3 3 4 5 6 7 7 8 9 9 9 10 10 10 10 10 10 9 7
14 13 13 12 11 9 11 12 12 11 8 4 2 3 1 1 1 2 3 4 3 4 4 4 3 3 2 1 2 2 3 4 5 6 7 8 8 9 10 10 10 11 11 11 11 11 11 10 9
16 15 14 13 12 10 12 13 13 13 10 6 2 3 3 3 3 3 3 3 3 3 3 2 2 2 2 2 2 3 4 5 6 7 8 8 9 10 10 11 11 11 12 12 12 12 12 11 10
19 18 16 14 12 12 13 15 14 17 15 9 6 5 5 6 5 4 3 3 3 3 2 1 1 2 3 4 4 5 6 6 7 8 9 10 10 11 12 12 13 13 13 13 13 13 13 12 11
20 19 17 15 14 15 17 17 18 21 21 17 10 8 6 6 7 6 4 3 2 1 1 2 3 4 5 6 7 7 8 9 10 10 11 11 12 13 14 14 14 15 15 15 14 14 14 14 13
21 21 18 15 14 17 20 20 22 25 24 20 17 12 9 8 6 6 5 3 2 1 3 4 5 7 8 9 10 10 11 12 12 13 14 14 15 16 16 17 17 17 17 17 17 16 16 16 15
21 21 19 16 16 18 19 21 23 26 25 23 20 14 11 10 10 8 7 4 2 3 5 6 7 9 10 11 12 13 14 14 15 16 17 17 18 18 18 19 19 19 19 19 19 19 18 18 17
19 19 18 18 20 21 20 21 23 25 27 26 23 16 11 11 10 9 8 5 4 5 7 8 9 10 12 13 14 15 16 16 18 18 19 19 18 19 19 20 19 19 19 19 19 19 19 19 19
16 16 16 19 21 22 22 23 24 26 26 26 24 21 18 16 13 11 9 7 5 6 8 9 10 11 13 14 16 16 17 17 18 19 19 19 19 18 17 17 17 17 17 17 18 18 18 18 19
12 13 14 17 21 23 24 25 26 27 26 25 24 24 21 17 15 13 9 7 7 8 10 11 12 13 14 15 15 15 16 17 18 18 18 17 16 15 15 15 15 15 15 15 15 16 16 17 18
8 8 10 13 17 20 23 25 27 28 26 26 26 24 20 16 15 13 10 8 8 10 11 12 13 14 14 15 14 14 15 16 17 16 15 15 14 14 15 15 15 15 15 15 15 15 16 17 17
8 6 6 8 12 16 20 21 23 25 25 26 25 22 19 17 15 12 11 10 10 11 12 12 12 13 14 13 13 13 14 14 14 13 13 13 13 13 14 14 15 15 16 15 15 15 16 16 16
12 11 9 10 12 13 15 17 20 21 21 21 20 19 16 14 13 11 10 10 9 10 11 11 12 12 11 11 11 11 11 11 11 11 11 11 12 12 12 13 14 15 15 15 15 15 15 15 16
13 13 12 12 13 13 11 13 15 16 18 20 20 18 16 13 13 11 11 10 10 10 10 10 10 10 8 8 9 8 8 8 9 8 9 9 10 11 12 12 13 13 14 14 14 15 15 16 16
13 14 14 14 13 13 11 11 13 15 15 15 15 16 14 13 12 12 12 10 9 9 8 8 8 7 6 7 7 6 6 7 7 8 8 9 9 9 10 11 12 12 13 13 14 14 15 16 16
12 15 17 15 14 14 12 11 14 14 13 9 10 13 12 12 13 12 10 9 7 7 7 6 6 6 5 5 5 4 5 6 7 7 8 8 9 9 9 9 10 10 11 12 12 13 14 15 16
15 18 18 17 16 14 13 13 15 14 11 10 9 8 8 10 11 11 9 7 5 5 5 4 4 3 3 3 4 4 4 5 6 7 7 8 8 9 9 9 9 10 10 11 12 12 13 14 15
19 20 19 18 16 15 14 14 14 13 11 8 5 5 6 8 9 9 8 6 5 4 3 2 2 1 1 2 3 3 3 4 5 6 7 8 8 8 9 9 9 9 9 9 10 11 12 12 13
19 18 18 18 17 16 16 15 14 14 11 9 4 1 5 8 7 8 7 6 5 4 3 2 2 1 1 2 2 2 3 4 5 6 7 8 9 9 10 9 9 9 9 10 10 11 11 12 12
17 17 18 18 18 16 16 14 12 12 11 10 6 3 5 7 7 8 7 6 5 4 3 2 2 1 0 1 2 2 3 4 6 7 8 9 10 11 11 11 10 10 10 10 11 11 11 11 12
15 16 18 19 17 15 14 13 11 10 10 10 9 8 7 8 9 10 8 7 6 5 4 3 2 1 0 1 2 3 4 5 6 8 9 10 11 11 11 12 12 12 12 12 12 13 13 13 13
14 15 16 17 16 15 13 10 11 10 9 11 11 10 9 9 9 9 8 8 6 4 3 2 1 1 1 2 3 4 5 6 7 8 10 11 12 13 13 13 13 14 14 14 15 15 16 16 16
13 14 14 14 14 13 10 9 10 10 9 11 11 11 10 9 8 8 8 6 5 3 3 2 1 1 2 3 4 4 6 7 8 9 11 12 13 14 14 15 16 16 16 16 16 17 18 18 19
12 13 12 12 12 10 7 7 8 8 8 8 9 9 9 9 8 7 6 5 3 2 2 2 2 2 3 3 4 5 7 8 9 11 12 12 13 14 15 16 17 17 17 18 18 18 19 20 20
12 12 12 11 10 9 5 5 5 6 6 6 6 6 6 6 5 5 4 3 2 2 3 3 3 3 4 4 5 7 8 9 11 12 12 13 14 15 16 16 17 17 18 19 19 20 21 21 22
11 11 11 11 11 11 7 4 2 4 4 4 4 3 3 3 2 2 1 2 2 3 4 4 4 4 5 5 7 8 9 11 12 13 13 14 14 15 16 16 17 18 19 21 22 23 24 24 25
13 12 12 12 12 11 7 4 2 2 2 2 2 2 2 2 2 2 2 2 3 4 4 5 5 6 6 7 9 10 11 12 13 14 14 15 15 16 17 17 18 20 21 22 23 25 26 26 27
17 15 12 11 13 12 9 6 5 4 3 1 1 1 1 1 2 3 4 4 5 5 6 6 7 7 8 9 11 12 13 14 15 16 17 17 18 19 20 20 21 22 23 24 26 28 29 29 30
18 17 13 12 13 13 12 10 9 8 7 5 3 2 1 1 2 4 4 5 6 6 7 7 8 9 10 11 13 14 15 16 18 18 19 20 21 22 23 24 25 25 26 27 29 30 32 32 33
16 16 15 13 12 13 14 13 11 11 9 8 6 5 4 4 4 4 4 5 6 7 8 9 10 11 13 14 16 17 18 19 20 21 21 22 23 24 25 25 26 28 28 29 30 31 34 35 35
Wind_Direction
310 307 304 303 305 309 303 302 307 296 286 296 321 331 7 4 353 134 164 190 159 129 120 117 111 105 96 80 20 328 319 314 313 312 312 310 308 306 306 307 309 311 310 311 311 314 316 319 322
301 301 301 303 306 304 295 301 309 298 280 255 217 289 302 309 277 205 200 206 163 129 123 116 105 92 76 46 360 333 320 319 316 311 308 305 304 304 302 301 302 304 305 304 305 307 308 311 311
294 295 297 303 309 297 291 294 298 291 268 241 204 271 255 230 237 215 206 194 157 126 121 113 95 63 27 356 334 325 322 317 314 311 309 307 305 304 304 301 300 299 301 300 300 300 302 305 305
289 289 292 297 300 283 285 287 286 287 280 271 262 254 246 223 199 198 202 183 149 130 119 90 43 2 342 331 326 320 316 311 306 305 305 304 304 302 300 299 298 297 298 297 296 295 296 298 300
286 284 284 288 289 279 278 284 283 285 285 283 267 248 227 205 183 185 190 180 162 136 27 352 338 331 326 319 316 315 313 312 308 304 301 300 298 296 294 291 292 291 291 291 291 291 291 292 294
282 280 276 278 278 272 273 278 281 283 285 279 272 256 235 202 187 183 187 190 190 275 313 319 322 319 316 313 312 311 309 306 303 300 298 296 292 289 289 289 287 284 284 284 284 285 286 288 289
281 279 272 267 259 255 264 272 280 283 280 282 279 266 237 216 207 190 195 202 228 279 295 303 306 305 306 306 304 302 300 298 296 296 294 293 290 286 285 287 285 280 279 279 278 279 281 284 285
284 277 268 258 248 246 257 267 272 276 280 286 289 279 259 229 209 197 202 214 237 268 286 293 295 296 297 297 294 293 291 292 293 292 290 290 289 286 285 284 281 277 276 276 275 274 275 279 282
286 274 260 250 246 246 252 261 268 271 279 285 288 285 274 251 220 208 203 217 239 264 280 286 289 289 288 290 290 287 285 287 289 289 287 287 287 284 284 284 281 278 275 275 275 272 273 274 278
291 276 262 253 251 251 253 258 263 267 274 282 286 283 269 246 225 212 210 219 243 260 272 279 283 284 284 286 287 285 284 286 288 289 288 287 284 282 281 283 282 280 277 275 275 274 272 272 276
308 291 272 262 263 265 263 263 264 266 271 278 281 278 269 246 233 218 213 221 237 255 265 273 279 282 283 284 286 284 284 287 288 287 287 286 281 281 280 282 281 280 278 276 275 274 273 272 273
357 347 324 298 288 278 272 269 270 271 276 281 279 272 261 241 238 223 222 237 242 250 261 268 275 278 278 280 283 284 284 287 288 286 286 283 280 280 282 283 282 280 279 277 275 274 272 272 270
28 22 360 331 314 298 286 279 275 274 274 275 273 267 256 239 238 231 222 236 250 256 264 269 276 277 277 278 283 283 285 287 288 290 290 287 287 288 287 285 282 281 279 276 273 273 272 271 271
31 23 5 343 331 323 305 290 286 285 277 275 269 260 249 241 244 242 238 235 247 262 270 276 280 283 280 283 289 293 293 293 294 301 302 300 301 299 294 290 287 284 280 276 274 273 271 271 271
22 18 4 351 344 339 327 304 298 302 297 285 265 262 252 247 238 231 228 229 245 264 273 280 285 290 288 293 299 304 307 309 314 317 315 315 316 312 305 299 294 290 285 281 277 273 270 269 269
11 10 4 359 349 343 339 327 317 311 307 298 273 262 249 230 223 220 215 220 236 255 266 273 282 292 294 304 314 321 324 323 326 328 326 325 325 321 317 313 305 298 292 287 284 278 274 271 269
11 4 358 357 354 346 343 340 333 328 322 307 288 267 227 207 198 191 197 204 217 238 252 262 271 287 299 317 328 331 336 338 338 340 340 335 332 328 326 323 317 311 305 298 292 286 280 275 272
5 358 354 354 354 354 352 348 347 340 333 331 303 266 211 184 178 181 188 191 195 207 217 226 238 268 304 335 338 344 355 357 352 347 343 339 339 337 335 332 329 323 317 311 304 297 291 286 280
354 348 348 349 353 351 351 354 359 3 2 360 4 181 180 165 171 173 168 159 161 164 170 188 204 223 310 336 337 352 356 354 348 346 346 348 348 345 342 336 330 326 323 319 312 306 300 295 289
341 339 342 346 350 347 349 356 5 12 23 30 45 106 148 157 166 166 159 155 150 150 161 162 168 192 286 317 329 345 351 348 348 350 348 347 344 340 339 335 331 326 323 321 317 312 307 301 295
334 336 342 348 350 351 353 3 16 30 41 47 62 89 135 145 157 161 156 153 150 148 149 154 165 174 261 321 337 345 347 350 350 346 343 340 336 335 334 330 327 324 319 315 312 309 306 304 300
337 343 347 353 356 358 4 28 43 51 57 60 68 82 107 128 139 144 144 146 147 148 155 167 175 207 293 316 334 342 345 344 343 340 339 338 335 332 330 328 325 321 316 311 307 305 303 302 300
333 340 344 351 354 0 14 42 52 59 67 69 75 84 95 109 125 135 143 143 144 153 163 186 221 270 298 313 326 338 344 345 344 343 341 339 337 335 334 333 330 326 322 318 313 308 304 301 298
326 331 333 334 341 350 16 43 59 72 76 77 79 86 91 97 106 118 127 130 141 170 205 237 260 291 304 314 329 339 344 345 344 343 341 339 339 338 337 335 332 329 326 322 318 314 310 305 300
321 322 322 325 333 341 1 25 60 77 79 84 87 90 93 96 103 113 124 138 166 213 242 259 277 294 303 316 329 338 341 342 341 340 339 340 340 339 336 333 331 329 327 324 321 318 314 310 306
311 306 307 316 319 326 332 350 32 73 73 79 88 107 116 122 129 137 156 186 215 240 254 262 273 288 302 315 325 331 335 336 335 334 334 334 333 332 330 329 328 326 325 323 322 321 317 314 310
302 305 301 299 297 308 324 352 21 27 44 91 108 127 127 142 179 212 245 254 251 256 262 272 280 289 299 309 317 322 324 327 328 327 326 325 322 322 324 324 322 322 322 321 321 321 319 316 314
293 298 290 281 282 289 299 309 316 324 338 328 307 210 174 177 205 230 249 258 258 258 263 271 277 285 297 306 310 314 317 319 320 320 319 317 315 314 315 315 315 316 318 319 320 320 319 316 314
289 290 286 277 277 281 282 291 300 307 310 310 322 329 322 268 234 224 235 254 263 265 269 274 280 289 298 303 306 308 311 313 315 316 316 315 314 313 312 311 312 311 311 313 316 317 317 315 313
286 288 283 271 270 275 278 287 292 299 301 308 312 328 327 315 298 284 279 278 280 283 286 289 294 297 300 301 302 304 306 307 309 311 313 312 312 311 310 310 309 308 307 308 310 311 314 313 311
Height
5924 5923 5923 5922 5922 5921 5919 5918 5917 5914 5913 5912 5912 5913 5914 5917 5918 5920 5918 5916 5915 5914 5915 5915 5915 5915 5915 5915 5915 5915 5915 5915 5914 5914 5913 5913 5912 5912 5912 5911 5911 5910 5909 5908 5907 5907 5907 5906 5906
5922 5922 5922 5921 5920 5919 5918 5917 5915 5911 5910 5908 5908 5910 5912 5914 5915 5916 5916 5915 5914 5914 5914 5914 5914 5914 5915 5915 5915 5914 5914 5914 5913 5913 5912 5912 5911 5911 5910 5910 5909 5909 5908 5907 5906 5906 5905 5905 5905
5920 5920 5920 5920 5918 5917 5916 5915 5912 5908 5906 5903 5903 5908 5910 5912 5913 5914 5914 5913 5913 5913 5913 5913 5913 5913 5913 5913 5913 5913 5913 5913 5912 5912 5911 5911 5910 5909 5909 5908 5908 5907 5906 5906 5905 5904 5904 5904 5903
5918 5918 5918 5918 5916 5914 5912 5911 5908 5905 5902 5900 5901 5906 5909 5910 5911 5911 5912 5912 5912 5912 5912 5912 5912 5912 5912 5912 5912 5912 5912 5911 5911 5910 5910 5909 5908 5908 5907 5906 5906 5905 5904 5904 5903 5902 5902 5902 5902
5914 5915 5916 5916 5914 5912 5908 5907 5905 5902 5900 5898 5900 5904 5907 5908 5908 5908 5909 5910 5910 5910 5911 5911 5911 5911 5911 5911 5910 5910 5910 5909 5909 5908 5908 5907 5907 5906 5905 5904 5904 5903 5902 5902 5901 5900 5900 5900 5900
5911 5911 5912 5913 5912 5909 5905 5903 5901 5900 5897 5897 5896 5900 5903 5905 5905 5906 5907 5908 5908 5909 5909 5909 5909 5909 5909 5909 5908 5908 5908 5907 5906 5906 5905 5904 5904 5903 5902 5901 5901 5900 5900 5899 5899 5898 5897 5897 5897
5908 5907 5908 5909 5908 5905 5901 5899 5898 5896 5894 5893 5895 5899 5902 5903 5903 5903 5904 5906 5907 5907 5908 5907 5907 5907 5907 5906 5906 5905 5905 5904 5903 5902 5902 5901 5900 5899 5899 5898 5897 5897 5896 5896 5895 5895 5894 5894 5894
5903 5904 5904 5904 5902 5900 5898 5896 5894 5894 5892 5892 5894 5897 5899 5900 5900 5900 5901 5903 5904 5905 5906 5906 5905 5905 5905 5904 5903 5903 5902 5901 5900 5899 5898 5897 5896 5896 5895 5894 5893 5892 5892 5892 5892 5891 5891 5891 5891
5900 5900 5899 5898 5897 5896 5894 5892 5892 5891 5891 5891 5892 5895 5897 5897 5896 5896 5898 5900 5902 5903 5904 5904 5903 5903 5902 5901 5900 5899 5899 5897 5896 5895 5894 5893 5893 5891 5890 5890 5889 5888 5888 5888 5888 5888 5888 5887 5887
5897 5896 5895 5894 5892 5891 5890 5889 5889 5889 5888 5889 5890 5891 5891 5891 5891 5893 5895 5897 5899 5900 5901 5901 5900 5900 5899 5898 5897 5896 5895 5894 5892 5891 5890 5889 5889 5888 5887 5886 5886 5885 5885 5885 5885 5885 5884 5884 5884
5894 5893 5892 5891 5889 5888 5887 5886 5886 5885 5886 5886 5886 5886 5886 5887 5886 5889 5892 5894 5895 5897 5897 5897 5897 5896 5895 5894 5894 5893 5892 5890 5888 5887 5886 5886 5885 5885 5884 5883 5883 5882 5882 5882 5882 5882 5881 5881 5881
5893 5892 5891 5889 5888 5886 5884 5883 5882 5882 5883 5883 5883 5881 5882 5882 5883 5885 5888 5891 5893 5894 5894 5894 5893 5893 5892 5891 5891 5890 5888 5887 5885 5884 5883 5883 5882 5882 5881 5880 5880 5879 5879 5879 5879 5878 5878 5878 5877
5893 5892 5890 5887 5885 5884 5882 5880 5879 5878 5878 5878 5879 5878 5876 5879 5880 5881 5883 5886 5889 5890 5891 5891 5891 5890 5889 5889 5888 5887 5885 5884 5882 5881 5880 5880 5879 5879 5878 5877 5876 5876 5875 5875 5875 5875 5875 5874 5874
5894 5891 5889 5886 5884 5881 5879 5878 5876 5875 5874 5874 5873 5873 5873 5875 5877 5879 5881 5883 5885 5886 5886 5886 5886 5886 5886 5885 5885 5884 5883 5881 5880 5879 5878 5877 5877 5876 5875 5874 5873 5872 5872 5872 5872 5871 5871 5871 5871
5894 5893 5890 5886 5883 5880 5878 5876 5873 5872 5870 5868 5867 5868 5869 5870 5873 5876 5877 5879 5881 5882 5883 5883 5883 5883 5883 5882 5882 5881 5880 5879 5877 5877 5876 5875 5874 5873 5872 5871 5870 5869 5869 5868 5868 5867 5867 5867 5867
5893 5892 5888 5885 5882 5880 5878 5875 5871 5868 5866 5864 5863 5862 5863 5864 5868 5872 5874 5877 5879 5879 5880 5880 5880 5880 5880 5880 5880 5879 5878 5877 5875 5875 5874 5873 5872 5871 5869 5868 5867 5866 5865 5864 5864 5863 5863 5863 5863
5891 5889 5886 5885 5882 5879 5877 5873 5869 5866 5864 5861 5859 5858 5858 5859 5863 5867 5871 5874 5876 5877 5878 5878 5878 5879 5878 5878 5878 5878 5877 5875 5874 5873 5872 5871 5870 5868 5867 5866 5864 5863 5862 5861 5861 5860 5859 5859 5859
5889 5887 5885 5883 5881 5879 5875 5872 5868 5864 5860 5858 5857 5857 5856 5859 5862 5865 5868 5871 5874 5875 5876 5876 5877 5877 5877 5877 5877 5876 5875 5874 5873 5871 5870 5869 5868 5866 5865 5863 5862 5861 5860 5859 5858 5857 5856 5856 5856
5888 5887 5885 5883 5881 5878 5874 5871 5867 5863 5859 5857 5856 5856 5856 5859 5862 5864 5867 5870 5872 5874 5874 5875 5876 5877 5876 5876 5876 5875 5874 5873 5872 5870 5869 5867 5866 5864 5862 5861 5860 5858 5857 5856 5855 5854 5853 5853 5852
5887 5887 5884 5882 5880 5877 5874 5871 5867 5863 5861 5859 5856 5855 5856 5858 5862 5865 5867 5870 5871 5873 5874 5875 5875 5875 5875 5875 5875 5874 5873 5871 5870 5868 5867 5865 5864 5862 5860 5859 5857 5856 5855 5854 5852 5851 5850 5850 5849
5887 5886 5883 5881 5878 5876 5873 5871 5867 5865 5863 5861 5859 5857 5857 5859 5862 5865 5868 5869 5871 5873 5873 5874 5874 5874 5874 5874 5873 5872 5871 5870 5868 5867 5865 5863 5861 5860 5858 5857 5855 5854 5852 5851 5850 5849 5847 5846 5846
5886 5885 5882 5880 5877 5875 5873 5871 5869 5866 5865 5863 5862 5861 5861 5862 5864 5866 5868 5870 5871 5872 5873 5873 5873 5873 5873 5872 5871 5870 5869 5868 5867 5865 5863 5861 5859 5857 5855 5854 5852 5851 5849 5848 5846 5845 5844 5842 5842
5885 5883 5882 5880 5877 5875 5873 5872 5871 5868 5867 5866 5865 5864 5865 5865 5866 5867 5869 5870 5871 5872 5872 5872 5872 5872 5871 5871 5870 5869 5868 5866 5865 5863 5861 5859 5857 5855 5853 5851 5849 5847 5846 5844 5843 5841 5840 5838 5837
5884 5882 5881 5880 5878 5876 5874 5873 5871 5869 5867 5867 5866 5866 5867 5867 5868 5868 5869 5870 5871 5871 5871 5871 5871 5870 5870 5869 5868 5867 5865 5864 5862 5861 5859 5857 5855 5852 5850 5848 5846 5844 5842 5840 5838 5837 5835 5833 5832
5882 5881 5880 5879 5877 5876 5874 5873 5872 5870 5868 5867 5867 5867 5867 5868 5868 5869 5869 5870 5870 5870 5870 5869 5869 5869 5868 5867 5866 5865 5863 5861 5860 5858 5856 5854 5852 5850 5848 5845 5843 5841 5839 5837 5834 5832 5830 5828 5826
5881 5880 5879 5877 5875 5874 5873 5872 5872 5870 5869 5867 5867 5867 5867 5868 5868 5868 5868 5868 5869 5869 5868 5868 5867 5867 5866 5865 5864 5862 5861 5859 5857 5856 5854 5852 5850 5847 5845 5843 5840 5838 5835 5832 5830 5827 5824 5822 5819
5879 5878 5876 5875 5873 5872 5871 5871 5871 5870 5869 5867 5867 5866 5866 5867 5867 5867 5866 5867 5867 5867 5866 5866 5865 5865 5864 5863 5861 5860 5858 5857 5855 5853 5851 5849 5846 5844 5842 5839 5836 5834 5831 5828 5825 5822 5819 5816 5813
5877 5875 5874 5872 5870 5869 5869 5868 5869 5868 5867 5866 5865 5865 5864 5865 5865 5865 5864 5864 5865 5864 5864 5863 5863 5862 5861 5860 5858 5857 5855 5853 5851 5849 5847 5845 5842 5840 5837 5835 5832 5829 5826 5823 5820 5816 5813 5809 5806
5873 5871 5870 5869 5868 5867 5865 5867 5865 5865 5864 5863 5863 5862 5862 5862 5862 5862 5862 5862 5862 5861 5861 5860 5859 5858 5857 5856 5855 5853 5851 5849 5847 5845 5842 5840 5837 5834 5832 5829 5826 5823 5820 5817 5814 5810 5806 5803 5799
5868 5867 5866 5866 5865 5863 5862 5864 5861 5861 5861 5860 5860 5860 5859 5859 5859 5859 5858 5858 5858 5857 5856 5856 5855 5854 5853 5852 5850 5849 5847 5845 5842 5840 5837 5834 5832 5829 5826 5823 5820 5817 5814 5810 5807 5803 5799 5795 5791